Location: Bartlow
(52.0833°N, 0.3167°E)
Time: 05:23:11
(UTC+00:00)

Meteor 2-17 Rocket - Pass Details

Date: 30 April 2024
Orbit: 934 x 957 km, 82.5° (Epoch: 25 May)

Event Time Altitude Azimuth Distance (km) Brightness Sun altitude
Exits shadow 01:07:59 41° 198° (SSW) 1,342 4.7 -21.2°
Maximum altitude 01:10:17 82° 281° (W) 958 4.4 -21.1°
Drops below altitude 10° 01:16:24 10° 10° (N) 2,666 7.9 -20.8°
Sets 01:18:54 0° 11° (N) 3,611 9.0 -20.7°
